sat.trackr.live / text

‹ back to catalog

SHIYAN-32 02

NORAD 66378 · 2025-255C

PAYLOAD ACTIVE UNKNOWN

§ Identity

Operator
Country
PRC
Launch date
2025-11-08
Launch site
YSLA
Launch vehicle
Mass (kg)
RCS (m²)

External: N2YO · Heavens-Above · Gunter

§ Orbital elements

Epoch: 2026-09-20T21:28:10.887744Z

Period
93.39 min
Inclination
52.9919°
Eccentricity
0.0016149
Mean motion
15.41886947 rev/d
Perigee alt
429.5 km
Apogee alt
451.6 km
Semi-major
6,818.7 km
B*
2.0490e-4
RAAN
280.1555°
Arg perigee
154.0635°
Mean anomaly
206.1181°
Rev number
4,872

§ Raw data

SHIYAN-32 021 66378U 25255C   26263.89457046  .00008465  00000+0  20490-3 0  99912 66378  52.9919 280.1555 0016149 154.0635 206.1181 15.41886947 48721

JSON: /api/v1/satellites/66378 · /tle

For live sub-satellite position, see the globe view (requires WebGL).

§ Visibility from observer

Set your observer location to see the next 7 days of passes ≥ 10°. The values pass through the URL so the page stays shareable.

No JS? Fill the form by hand. The geolocation button needs JavaScript.